FW2930 Weather Reports


Display with metric or nautical units.
time (UTC)temp
F
wind
direction
speed
MPH
gust
MPH
rain 1hr
in
rain 24hr
in
rain mn
in
humidity
%
barometer
mb
20260506211401 0 143 12.0 12.0 0.00 0.00 0.00 -999.0
20260506211300 0 148 13.0 13.0 0.00 0.00 0.00 -999.0
20260506211201 0 155 13.0 13.0 0.00 0.00 0.00 -999.0
20260506211100 0 146 14.0 14.0 0.00 0.00 0.00 -999.0
20260506211001 0 164 12.0 12.0 0.00 0.00 0.00 -999.0
20260506210900 0 146 12.0 12.0 0.00 0.00 0.00 -999.0
20260506210801 0 148 12.0 12.0 0.00 0.00 0.00 -999.0
20260506210700 0 153 10.0 10.0 0.00 0.00 0.00 -999.0
20260506210401 0 139 11.0 11.0 0.00 0.00 0.00 -999.0
20260506210301 0 145 12.0 12.0 0.00 0.00 0.00 -999.0
20260506210200 0 143 12.0 12.0 0.00 0.00 0.00 -999.0
20260506210100 0 147 13.0 13.0 0.00 0.00 0.00 -999.0
20260506210001 0 160 10.0 10.0 0.00 0.00 0.00 -999.0
20260506205901 0 153 11.0 11.0 0.00 0.00 0.00 -999.0
20260506205601 0 137 12.0 12.0 0.00 0.00 0.00 -999.0
20260506205500 0 152 9.0 9.0 0.00 0.00 0.00 -999.0
20260506205401 0 150 11.0 11.0 0.00 0.00 0.00 -999.0
20260506205300 0 155 10.0 10.0 0.00 0.00 0.00 -999.0
20260506205100 0 139 14.0 14.0 0.00 0.00 0.00 -999.0
20260506205001 0 149 13.0 13.0 0.00 0.00 0.00 -999.0
20260506204800 0 156 12.0 12.0 0.00 0.00 0.00 -999.0
20260506204700 0 162 10.0 10.0 0.00 0.00 0.00 -999.0
20260506204600 0 147 9.0 9.0 0.00 0.00 0.00 -999.0
20260506204301 0 143 11.0 11.0 0.00 0.00 0.00 -999.0
20260506204201 0 123 12.0 12.0 0.00 0.00 0.00 -999.0
20260506204101 0 168 9.0 9.0 0.00 0.00 0.00 -999.0
20260506203901 0 147 9.0 9.0 0.00 0.00 0.00 -999.0
20260506203801 0 134 14.0 14.0 0.00 0.00 0.00 -999.0
20260506203701 0 143 14.0 14.0 0.00 0.00 0.00 -999.0
20260506203601 0 139 13.0 13.0 0.00 0.00 0.00 -999.0
20260506203501 0 151 14.0 14.0 0.00 0.00 0.00 -999.0
20260506203300 0 129 11.0 11.0 0.00 0.00 0.00 -999.0
20260506203200 0 137 13.0 13.0 0.00 0.00 0.00 -999.0
20260506203101 0 141 10.0 10.0 0.00 0.00 0.00 -999.0
20260506202901 0 140 10.0 10.0 0.00 0.00 0.00 -999.0
20260506202801 0 158 9.0 9.0 0.00 0.00 0.00 -999.0
20260506202700 0 154 10.0 10.0 0.00 0.00 0.00 -999.0
20260506202601 0 134 10.0 10.0 0.00 0.00 0.00 -999.0
20260506202501 0 153 12.0 12.0 0.00 0.00 0.00 -999.0
20260506202300 0 149 11.0 11.0 0.00 0.00 0.00 -999.0
20260506202200 0 152 11.0 11.0 0.00 0.00 0.00 -999.0
20260506202100 0 143 12.0 12.0 0.00 0.00 0.00 -999.0
20260506202000 0 150 10.0 10.0 0.00 0.00 0.00 -999.0
20260506201801 0 143 14.0 14.0 0.00 0.00 0.00 -999.0
20260506201701 0 147 13.0 13.0 0.00 0.00 0.00 -999.0
20260506201600 0 150 13.0 13.0 0.00 0.00 0.00 -999.0
20260506201501 0 168 10.0 10.0 0.00 0.00 0.00 -999.0
20260506201401 0 143 13.0 13.0 0.00 0.00 0.00 -999.0
20260506201301 0 124 12.0 12.0 0.00 0.00 0.00 -999.0
20260506201101 0 161 13.0 13.0 0.00 0.00 0.00 -999.0
20260506200900 0 143 13.0 13.0 0.00 0.00 0.00 -999.0
20260506200801 0 158 10.0 10.0 0.00 0.00 0.00 -999.0
20260506200700 0 144 11.0 11.0 0.00 0.00 0.00 -999.0
20260506200600 0 140 9.0 9.0 0.00 0.00 0.00 -999.0
20260506200501 0 143 12.0 12.0 0.00 0.00 0.00 -999.0
20260506200401 0 143 9.0 9.0 0.00 0.00 0.00 -999.0
20260506200300 0 131 7.0 7.0 0.00 0.00 0.00 -999.0
20260506200200 0 131 10.0 10.0 0.00 0.00 0.00 -999.0
20260506200100 0 139 9.0 9.0 0.00 0.00 0.00 -999.0
20260506200000 0 122 11.0 11.0 0.00 0.00 0.00 -999.0
20260506195900 0 142 10.0 10.0 0.00 0.00 0.00 -999.0
20260506195801 0 151 10.0 10.0 0.00 0.00 0.00 -999.0
20260506195701 0 133 13.0 13.0 0.00 0.00 0.00 -999.0
20260506195600 0 153 9.0 9.0 0.00 0.00 0.00 -999.0
20260506195501 0 146 13.0 13.0 0.00 0.00 0.00 -999.0
20260506195400 0 158 11.0 11.0 0.00 0.00 0.00 -999.0
20260506195301 0 145 10.0 10.0 0.00 0.00 0.00 -999.0
20260506195201 0 164 9.0 9.0 0.00 0.00 0.00 -999.0
20260506195101 0 131 9.0 9.0 0.00 0.00 0.00 -999.0
20260506195001 0 146 9.0 9.0 0.00 0.00 0.00 -999.0
20260506194900 0 156 11.0 11.0 0.00 0.00 0.00 -999.0
20260506194801 0 125 8.0 8.0 0.00 0.00 0.00 -999.0
20260506194700 0 161 9.0 9.0 0.00 0.00 0.00 -999.0
20260506194600 0 151 12.0 12.0 0.00 0.00 0.00 -999.0
20260506194500 0 139 14.0 14.0 0.00 0.00 0.00 -999.0
20260506194201 0 144 7.0 7.0 0.00 0.00 0.00 -999.0
20260506194101 0 137 12.0 12.0 0.00 0.00 0.00 -999.0
20260506194000 0 150 13.0 13.0 0.00 0.00 0.00 -999.0
20260506193900 0 146 13.0 13.0 0.00 0.00 0.00 -999.0
20260506193801 0 137 11.0 11.0 0.00 0.00 0.00 -999.0
20260506193701 0 145 12.0 12.0 0.00 0.00 0.00 -999.0
20260506193500 0 143 10.0 10.0 0.00 0.00 0.00 -999.0
20260506193401 0 141 9.0 9.0 0.00 0.00 0.00 -999.0
20260506193300 0 149 11.0 11.0 0.00 0.00 0.00 -999.0
20260506193201 0 141 11.0 11.0 0.00 0.00 0.00 -999.0
20260506193100 0 139 7.0 7.0 0.00 0.00 0.00 -999.0
20260506192901 0 146 9.0 9.0 0.00 0.00 0.00 -999.0
20260506192801 0 143 12.0 12.0 0.00 0.00 0.00 -999.0
20260506192700 0 146 14.0 14.0 0.00 0.00 0.00 -999.0
20260506192501 0 139 12.0 12.0 0.00 0.00 0.00 -999.0
20260506192300 0 139 11.0 11.0 0.00 0.00 0.00 -999.0
20260506192201 0 141 7.0 7.0 0.00 0.00 0.00 -999.0
20260506192001 0 143 9.0 9.0 0.00 0.00 0.00 -999.0
20260506191900 0 127 9.0 9.0 0.00 0.00 0.00 -999.0
20260506191801 0 103 9.0 9.0 0.00 0.00 0.00 -999.0
20260506191701 0 153 11.0 11.0 0.00 0.00 0.00 -999.0
20260506191601 0 158 10.0 10.0 0.00 0.00 0.00 -999.0
20260506191501 0 158 8.0 8.0 0.00 0.00 0.00 -999.0
20260506191400 0 148 11.0 11.0 0.00 0.00 0.00 -999.0
20260506191300 0 135 9.0 9.0 0.00 0.00 0.00 -999.0
20260506191201 0 133 9.0 9.0 0.00 0.00 0.00 -999.0
20260506191001 0 136 8.0 8.0 0.00 0.00 0.00 -999.0
20260506190901 0 141 9.0 9.0 0.00 0.00 0.00 -999.0
20260506190801 0 146 8.0 8.0 0.00 0.00 0.00 -999.0
20260506190700 0 145 12.0 12.0 0.00 0.00 0.00 -999.0
20260506190601 0 139 9.0 9.0 0.00 0.00 0.00 -999.0
20260506190500 0 142 10.0 10.0 0.00 0.00 0.00 -999.0
20260506190400 0 161 9.0 9.0 0.00 0.00 0.00 -999.0
20260506190300 0 149 10.0 10.0 0.00 0.00 0.00 -999.0
20260506190200 0 115 10.0 10.0 0.00 0.00 0.00 -999.0
20260506190101 0 122 8.0 8.0 0.00 0.00 0.00 -999.0
20260506190000 0 130 12.0 12.0 0.00 0.00 0.00 -999.0
20260506185901 0 139 8.0 8.0 0.00 0.00 0.00 -999.0
20260506185801 0 132 6.0 6.0 0.00 0.00 0.00 -999.0
20260506185700 0 157 8.0 8.0 0.00 0.00 0.00 -999.0
20260506185600 0 131 12.0 12.0 0.00 0.00 0.00 -999.0
20260506185501 0 108 10.0 10.0 0.00 0.00 0.00 -999.0
20260506185300 0 133 11.0 11.0 0.00 0.00 0.00 -999.0
20260506185201 0 136 10.0 10.0 0.00 0.00 0.00 -999.0
20260506185100 0 142 8.0 8.0 0.00 0.00 0.00 -999.0
20260506185001 0 130 8.0 8.0 0.00 0.00 0.00 -999.0
20260506184901 0 150 8.0 8.0 0.00 0.00 0.00 -999.0
20260506184800 0 134 8.0 8.0 0.00 0.00 0.00 -999.0
20260506184700 0 125 10.0 10.0 0.00 0.00 0.00 -999.0
20260506184501 0 138 8.0 8.0 0.00 0.00 0.00 -999.0
20260506184300 0 122 8.0 8.0 0.00 0.00 0.00 -999.0
20260506184200 0 145 9.0 9.0 0.00 0.00 0.00 -999.0
20260506184100 0 158 8.0 8.0 0.00 0.00 0.00 -999.0
20260506183901 0 155 9.0 9.0 0.00 0.00 0.00 -999.0
20260506183801 0 149 9.0 9.0 0.00 0.00 0.00 -999.0
20260506183700 0 136 9.0 9.0 0.00 0.00 0.00 -999.0
20260506183601 0 142 9.0 9.0 0.00 0.00 0.00 -999.0
20260506183500 0 156 9.0 9.0 0.00 0.00 0.00 -999.0
20260506183400 0 143 11.0 11.0 0.00 0.00 0.00 -999.0
20260506183301 0 150 8.0 8.0 0.00 0.00 0.00 -999.0
20260506183201 0 126 9.0 9.0 0.00 0.00 0.00 -999.0
20260506183101 0 136 9.0 9.0 0.00 0.00 0.00 -999.0
20260506183001 0 113 8.0 8.0 0.00 0.00 0.00 -999.0
20260506182901 0 141 10.0 10.0 0.00 0.00 0.00 -999.0
20260506182800 0 170 6.0 6.0 0.00 0.00 0.00 -999.0
20260506182700 0 124 7.0 7.0 0.00 0.00 0.00 -999.0
20260506182601 0 148 7.0 7.0 0.00 0.00 0.00 -999.0
20260506182501 0 147 10.0 10.0 0.00 0.00 0.00 -999.0
20260506182400 0 134 8.0 8.0 0.00 0.00 0.00 -999.0
20260506182101 0 138 8.0 8.0 0.00 0.00 0.00 -999.0
20260506182000 0 148 7.0 7.0 0.00 0.00 0.00 -999.0
20260506181900 0 143 10.0 10.0 0.00 0.00 0.00 -999.0
20260506181800 0 155 8.0 8.0 0.00 0.00 0.00 -999.0
20260506181700 0 149 8.0 8.0 0.00 0.00 0.00 -999.0
20260506181600 0 138 6.0 6.0 0.00 0.00 0.00 -999.0
20260506181500 0 153 8.0 8.0 0.00 0.00 0.00 -999.0
20260506181400 0 154 10.0 10.0 0.00 0.00 0.00 -999.0
20260506181300 0 165 8.0 8.0 0.00 0.00 0.00 -999.0
20260506181000 0 143 8.0 8.0 0.00 0.00 0.00 -999.0
20260506180901 0 155 9.0 9.0 0.00 0.00 0.00 -999.0
20260506180800 0 145 10.0 10.0 0.00 0.00 0.00 -999.0
20260506180600 0 144 9.0 9.0 0.00 0.00 0.00 -999.0
20260506180500 0 158 8.0 8.0 0.00 0.00 0.00 -999.0
20260506180400 0 154 6.0 6.0 0.00 0.00 0.00 -999.0
20260506180300 0 144 9.0 9.0 0.00 0.00 0.00 -999.0
20260506180200 0 144 9.0 9.0 0.00 0.00 0.00 -999.0
20260506180100 0 133 10.0 10.0 0.00 0.00 0.00 -999.0
20260506180000 0 139 7.0 7.0 0.00 0.00 0.00 -999.0
20260506175900 0 148 9.0 9.0 0.00 0.00 0.00 -999.0
20260506175800 0 146 6.0 6.0 0.00 0.00 0.00 -999.0
20260506175600 0 146 10.0 10.0 0.00 0.00 0.00 -999.0
20260506175500 0 128 7.0 7.0 0.00 0.00 0.00 -999.0
20260506175400 0 141 7.0 7.0 0.00 0.00 0.00 -999.0
20260506175300 0 141 6.0 6.0 0.00 0.00 0.00 -999.0
20260506175200 0 133 7.0 7.0 0.00 0.00 0.00 -999.0
20260506175100 0 142 6.0 6.0 0.00 0.00 0.00 -999.0
20260506175001 0 133 7.0 7.0 0.00 0.00 0.00 -999.0
20260506174900 0 148 4.0 4.0 0.00 0.00 0.00 -999.0
20260506174800 0 136 5.0 5.0 0.00 0.00 0.00 -999.0
20260506174700 0 140 8.0 8.0 0.00 0.00 0.00 -999.0
20260506174600 0 136 8.0 8.0 0.00 0.00 0.00 -999.0
20260506174500 0 125 8.0 8.0 0.00 0.00 0.00 -999.0
20260506174400 0 141 8.0 8.0 0.00 0.00 0.00 -999.0
20260506174300 0 148 7.0 7.0 0.00 0.00 0.00 -999.0
20260506174200 0 135 8.0 8.0 0.00 0.00 0.00 -999.0
20260506174100 0 136 4.0 4.0 0.00 0.00 0.00 -999.0
20260506174001 0 150 7.0 7.0 0.00 0.00 0.00 -999.0
20260506173900 0 128 6.0 6.0 0.00 0.00 0.00 -999.0
20260506173800 0 136 5.0 5.0 0.00 0.00 0.00 -999.0
20260506173700 0 131 6.0 6.0 0.00 0.00 0.00 -999.0
20260506173501 0 144 8.0 8.0 0.00 0.00 0.00 -999.0
20260506173400 0 142 8.0 8.0 0.00 0.00 0.00 -999.0
20260506173300 0 119 8.0 8.0 0.00 0.00 0.00 -999.0
20260506173200 0 125 6.0 6.0 0.00 0.00 0.00 -999.0
20260506173100 0 137 6.0 6.0 0.00 0.00 0.00 -999.0
20260506173001 0 142 5.0 5.0 0.00 0.00 0.00 -999.0
20260506172901 0 126 7.0 7.0 0.00 0.00 0.00 -999.0
20260506172800 0 120 5.0 5.0 0.00 0.00 0.00 -999.0
20260506172700 0 124 6.0 6.0 0.00 0.00 0.00 -999.0
20260506172600 0 142 6.0 6.0 0.00 0.00 0.00 -999.0
20260506172500 0 131 7.0 7.0 0.00 0.00 0.00 -999.0
20260506172400 0 120 8.0 8.0 0.00 0.00 0.00 -999.0
20260506172200 0 131 7.0 7.0 0.00 0.00 0.00 -999.0
20260506172100 0 137 4.0 4.0 0.00 0.00 0.00 -999.0
20260506172000 0 127 5.0 5.0 0.00 0.00 0.00 -999.0
20260506171900 0 143 4.0 4.0 0.00 0.00 0.00 -999.0
20260506171700 0 124 4.0 4.0 0.00 0.00 0.00 -999.0
20260506171600 0 146 5.0 5.0 0.00 0.00 0.00 -999.0
20260506171500 0 150 4.0 4.0 0.00 0.00 0.00 -999.0
20260506171400 0 130 6.0 6.0 0.00 0.00 0.00 -999.0
20260506171200 0 131 6.0 6.0 0.00 0.00 0.00 -999.0
20260506171100 0 115 7.0 7.0 0.00 0.00 0.00 -999.0
20260506170900 0 131 6.0 6.0 0.00 0.00 0.00 -999.0
20260506170800 0 131 6.0 6.0 0.00 0.00 0.00 -999.0
20260506170700 0 119 7.0 7.0 0.00 0.00 0.00 -999.0
20260506170600 0 137 6.0 6.0 0.00 0.00 0.00 -999.0
20260506170500 0 139 5.0 5.0 0.00 0.00 0.00 -999.0
20260506170400 0 129 7.0 7.0 0.00 0.00 0.00 -999.0
20260506170300 0 122 5.0 5.0 0.00 0.00 0.00 -999.0
20260506170201 0 139 6.0 6.0 0.00 0.00 0.00 -999.0
20260506170101 0 139 5.0 5.0 0.00 0.00 0.00 -999.0
20260506170001 0 124 6.0 6.0 0.00 0.00 0.00 -999.0
20260506165900 0 122 6.0 6.0 0.00 0.00 0.00 -999.0
20260506165800 0 126 5.0 5.0 0.00 0.00 0.00 -999.0
20260506165701 0 122 5.0 5.0 0.00 0.00 0.00 -999.0
20260506165500 0 133 6.0 6.0 0.00 0.00 0.00 -999.0
20260506165400 0 132 6.0 6.0 0.00 0.00 0.00 -999.0
20260506165300 0 127 9.0 9.0 0.00 0.00 0.00 -999.0
20260506165200 0 130 7.0 7.0 0.00 0.00 0.00 -999.0
20260506165100 0 134 7.0 7.0 0.00 0.00 0.00 -999.0
20260506165000 0 129 7.0 7.0 0.00 0.00 0.00 -999.0
20260506164700 0 117 6.0 6.0 0.00 0.00 0.00 -999.0
20260506164601 0 103 8.0 8.0 0.00 0.00 0.00 -999.0
20260506164500 0 133 6.0 6.0 0.00 0.00 0.00 -999.0
20260506164400 0 131 8.0 8.0 0.00 0.00 0.00 -999.0
20260506164301 0 148 7.0 7.0 0.00 0.00 0.00 -999.0
20260506164200 0 140 6.0 6.0 0.00 0.00 0.00 -999.0
20260506164101 0 122 5.0 5.0 0.00 0.00 0.00 -999.0
20260506163900 0 131 6.0 6.0 0.00 0.00 0.00 -999.0
20260506163801 0 142 6.0 6.0 0.00 0.00 0.00 -999.0
20260506163700 0 131 4.0 4.0 0.00 0.00 0.00 -999.0
20260506163600 0 135 3.0 3.0 0.00 0.00 0.00 -999.0
20260506163500 0 146 1.0 1.0 0.00 0.00 0.00 -999.0
20260506163200 0 161 3.0 3.0 0.00 0.00 0.00 -999.0
20260506163101 0 210 3.0 3.0 0.00 0.00 0.00 -999.0
20260506163001 0 155 4.0 4.0 0.00 0.00 0.00 -999.0
20260506162800 0 117 5.0 5.0 0.00 0.00 0.00 -999.0
20260506162700 0 113 4.0 4.0 0.00 0.00 0.00 -999.0
20260506162500 0 125 3.0 3.0 0.00 0.00 0.00 -999.0
20260506162401 0 107 3.0 3.0 0.00 0.00 0.00 -999.0
20260506162301 0 155 1.0 1.0 0.00 0.00 0.00 -999.0
20260506162200 0 110 1.0 1.0 0.00 0.00 0.00 -999.0
20260506162101 0 102 0.0 0.0 0.00 0.00 0.00 -999.0
20260506162000 0 102 0.0 0.0 0.00 0.00 0.00 -999.0
20260506161900 0 101 0.0 0.0 0.00 0.00 0.00 -999.0
20260506161800 0 102 0.0 0.0 0.00 0.00 0.00 -999.0
20260506161701 0 101 1.0 1.0 0.00 0.00 0.00 -999.0
20260506161601 0 101 1.0 1.0 0.00 0.00 0.00 -999.0
20260506161501 0 110 0.0 0.0 0.00 0.00 0.00 -999.0
20260506161401 0 127 1.0 1.0 0.00 0.00 0.00 -999.0
20260506161200 0 134 2.0 2.0 0.00 0.00 0.00 -999.0
20260506161101 0 159 2.0 2.0 0.00 0.00 0.00 -999.0
20260506161000 0 122 3.0 3.0 0.00 0.00 0.00 -999.0
20260506160901 0 120 3.0 3.0 0.00 0.00 0.00 -999.0
20260506160801 0 131 2.0 2.0 0.00 0.00 0.00 -999.0
20260506160700 0 174 3.0 3.0 0.00 0.00 0.00 -999.0
20260506160601 0 130 5.0 5.0 0.00 0.00 0.00 -999.0
20260506160501 0 124 4.0 4.0 0.00 0.00 0.00 -999.0
20260506160301 0 111 3.0 3.0 0.00 0.00 0.00 -999.0
20260506160201 0 120 2.0 2.0 0.00 0.00 0.00 -999.0
20260506160100 0 115 0.0 0.0 0.00 0.00 0.00 -999.0
20260506160001 0 115 0.0 0.0 0.00 0.00 0.00 -999.0
20260506155801 0 103 1.0 1.0 0.00 0.00 0.00 -999.0
20260506155700 0 133 1.0 1.0 0.00 0.00 0.00 -999.0
20260506155600 0 136 2.0 2.0 0.00 0.00 0.00 -999.0
20260506155300 0 127 3.0 3.0 0.00 0.00 0.00 -999.0
20260506155001 0 116 4.0 4.0 0.00 0.00 0.00 -999.0
20260506154901 0 127 2.0 2.0 0.00 0.00 0.00 -999.0
20260506154801 0 138 3.0 3.0 0.00 0.00 0.00 -999.0
20260506154701 0 133 4.0 4.0 0.00 0.00 0.00 -999.0
20260506154600 0 157 1.0 1.0 0.00 0.00 0.00 -999.0
20260506154500 0 141 3.0 3.0 0.00 0.00 0.00 -999.0
20260506154401 0 136 1.0 1.0 0.00 0.00 0.00 -999.0
20260506154300 0 131 6.0 6.0 0.00 0.00 0.00 -999.0
20260506154201 0 134 5.0 5.0 0.00 0.00 0.00 -999.0
20260506154001 0 140 4.0 4.0 0.00 0.00 0.00 -999.0
20260506153901 0 100 4.0 4.0 0.00 0.00 0.00 -999.0
20260506153800 0 141 4.0 4.0 0.00 0.00 0.00 -999.0
20260506153700 0 158 4.0 4.0 0.00 0.00 0.00 -999.0
20260506153601 0 129 4.0 4.0 0.00 0.00 0.00 -999.0
20260506153501 0 136 5.0 5.0 0.00 0.00 0.00 -999.0
20260506153301 0 160 1.0 1.0 0.00 0.00 0.00 -999.0
20260506153200 0 136 4.0 4.0 0.00 0.00 0.00 -999.0
20260506153001 0 157 4.0 4.0 0.00 0.00 0.00 -999.0
20260506152801 0 199 3.0 3.0 0.00 0.00 0.00 -999.0
20260506152700 0 206 6.0 6.0 0.00 0.00 0.00 -999.0
20260506152601 0 198 2.0 2.0 0.00 0.00 0.00 -999.0
20260506152500 0 200 4.0 4.0 0.00 0.00 0.00 -999.0
20260506152400 0 193 3.0 3.0 0.00 0.00 0.00 -999.0
20260506152300 0 206 5.0 5.0 0.00 0.00 0.00 -999.0
20260506152200 0 200 9.0 9.0 0.00 0.00 0.00 -999.0
20260506152101 0 212 4.0 4.0 0.00 0.00 0.00 -999.0
20260506152001 0 194 1.0 1.0 0.00 0.00 0.00 -999.0
20260506151901 0 158 3.0 3.0 0.00 0.00 0.00 -999.0
20260506151800 0 214 2.0 2.0 0.00 0.00 0.00 -999.0
20260506151701 0 198 3.0 3.0 0.00 0.00 0.00 -999.0
20260506151600 0 187 4.0 4.0 0.00 0.00 0.00 -999.0
20260506151501 0 183 2.0 2.0 0.00 0.00 0.00 -999.0
20260506151400 0 217 1.0 1.0 0.00 0.00 0.00 -999.0
20260506151301 0 221 3.0 3.0 0.00 0.00 0.00 -999.0
20260506151200 0 127 4.0 4.0 0.00 0.00 0.00 -999.0
20260506151100 0 198 4.0 4.0 0.00 0.00 0.00 -999.0
20260506150701 0 230 4.0 4.0 0.00 0.00 0.00 -999.0
20260506150600 0 195 7.0 7.0 0.00 0.00 0.00 -999.0
20260506150501 0 202 4.0 4.0 0.00 0.00 0.00 -999.0
20260506150401 0 229 5.0 5.0 0.00 0.00 0.00 -999.0
20260506150304 0 197 5.0 5.0 0.00 0.00 0.00 -999.0
20260506150101 0 159 3.0 3.0 0.00 0.00 0.00 -999.0
20260506145901 0 232 6.0 6.0 0.00 0.00 0.00 -999.0
20260506145801 0 226 4.0 4.0 0.00 0.00 0.00 -999.0
20260506145700 0 220 3.0 3.0 0.00 0.00 0.00 -999.0
20260506145601 0 226 6.0 6.0 0.00 0.00 0.00 -999.0
20260506145400 0 217 5.0 5.0 0.00 0.00 0.00 -999.0
20260506145301 0 198 5.0 5.0 0.00 0.00 0.00 -999.0
20260506145201 0 184 5.0 5.0 0.00 0.00 0.00 -999.0
20260506145100 0 207 5.0 5.0 0.00 0.00 0.00 -999.0
20260506145000 0 198 5.0 5.0 0.00 0.00 0.00 -999.0
20260506144900 0 200 9.0 9.0 0.00 0.00 0.00 -999.0
20260506144700 0 188 3.0 3.0 0.00 0.00 0.00 -999.0
20260506144600 0 185 8.0 8.0 0.00 0.00 0.00 -999.0
20260506144400 0 214 1.0 1.0 0.00 0.00 0.00 -999.0
20260506144200 0 140 4.0 4.0 0.00 0.00 0.00 -999.0
20260506144100 0 214 4.0 4.0 0.00 0.00 0.00 -999.0
20260506143900 0 234 4.0 4.0 0.00 0.00 0.00 -999.0
20260506143801 0 214 9.0 9.0 0.00 0.00 0.00 -999.0
20260506143700 0 191 7.0 7.0 0.00 0.00 0.00 -999.0
20260506143600 0 208 4.0 4.0 0.00 0.00 0.00 -999.0
20260506143500 0 214 7.0 7.0 0.00 0.00 0.00 -999.0
20260506143301 0 199 2.0 2.0 0.00 0.00 0.00 -999.0
20260506143200 0 217 4.0 4.0 0.00 0.00 0.00 -999.0
20260506143100 0 207 4.0 4.0 0.00 0.00 0.00 -999.0
20260506143000 0 207 9.0 9.0 0.00 0.00 0.00 -999.0
20260506142701 0 184 9.0 9.0 0.00 0.00 0.00 -999.0
20260506142601 0 195 5.0 5.0 0.00 0.00 0.00 -999.0
20260506142401 0 202 3.0 3.0 0.00 0.00 0.00 -999.0
20260506142301 0 153 6.0 6.0 0.00 0.00 0.00 -999.0
20260506142200 0 188 1.0 1.0 0.00 0.00 0.00 -999.0
20260506142001 0 205 2.0 2.0 0.00 0.00 0.00 -999.0
20260506141801 0 215 1.0 1.0 0.00 0.00 0.00 -999.0
20260506141501 0 241 8.0 8.0 0.00 0.00 0.00 -999.0
20260506141401 0 243 8.0 8.0 0.00 0.00 0.00 -999.0
20260506141301 0 235 7.0 7.0 0.00 0.00 0.00 -999.0
20260506141200 0 241 4.0 4.0 0.00 0.00 0.00 -999.0
20260506141100 0 240 5.0 5.0 0.00 0.00 0.00 -999.0
20260506141001 0 193 5.0 5.0 0.00 0.00 0.00 -999.0
20260506140901 0 211 1.0 1.0 0.00 0.00 0.00 -999.0
20260506140801 0 165 3.0 3.0 0.00 0.00 0.00 -999.0
20260506140701 0 176 4.0 4.0 0.00 0.00 0.00 -999.0
20260506140600 0 187 5.0 5.0 0.00 0.00 0.00 -999.0
20260506140500 0 229 4.0 4.0 0.00 0.00 0.00 -999.0
20260506140401 0 232 5.0 5.0 0.00 0.00 0.00 -999.0
20260506140301 0 205 6.0 6.0 0.00 0.00 0.00 -999.0
20260506140201 0 155 7.0 7.0 0.00 0.00 0.00 -999.0
20260506140101 0 185 5.0 5.0 0.00 0.00 0.00 -999.0
20260506140000 0 236 7.0 7.0 0.00 0.00 0.00 -999.0
20260506135901 0 222 6.0 6.0 0.00 0.00 0.00 -999.0
20260506135800 0 229 4.0 4.0 0.00 0.00 0.00 -999.0
20260506135601 0 172 5.0 5.0 0.00 0.00 0.00 -999.0
20260506135500 0 195 4.0 4.0 0.00 0.00 0.00 -999.0
20260506135400 0 192 3.0 3.0 0.00 0.00 0.00 -999.0
20260506135300 0 229 3.0 3.0 0.00 0.00 0.00 -999.0
20260506135201 0 184 4.0 4.0 0.00 0.00 0.00 -999.0
20260506134901 0 227 1.0 1.0 0.00 0.00 0.00 -999.0
20260506134801 0 145 4.0 4.0 0.00 0.00 0.00 -999.0
20260506134700 0 241 5.0 5.0 0.00 0.00 0.00 -999.0
20260506134600 0 197 5.0 5.0 0.00 0.00 0.00 -999.0
20260506134501 0 166 2.0 2.0 0.00 0.00 0.00 -999.0
20260506134400 0 212 3.0 3.0 0.00 0.00 0.00 -999.0
20260506134300 0 186 3.0 3.0 0.00 0.00 0.00 -999.0
20260506134200 0 189 5.0 5.0 0.00 0.00 0.00 -999.0
20260506134100 0 219 6.0 6.0 0.00 0.00 0.00 -999.0
20260506134001 0 232 6.0 6.0 0.00 0.00 0.00 -999.0
20260506133900 0 165 2.0 2.0 0.00 0.00 0.00 -999.0
20260506133701 0 227 6.0 6.0 0.00 0.00 0.00 -999.0
20260506133600 0 218 2.0 2.0 0.00 0.00 0.00 -999.0
20260506133501 0 213 7.0 7.0 0.00 0.00 0.00 -999.0
20260506133401 0 196 6.0 6.0 0.00 0.00 0.00 -999.0
20260506133300 0 229 6.0 6.0 0.00 0.00 0.00 -999.0
20260506133201 0 223 4.0 4.0 0.00 0.00 0.00 -999.0
20260506133100 0 210 6.0 6.0 0.00 0.00 0.00 -999.0
20260506133001 0 203 7.0 7.0 0.00 0.00 0.00 -999.0
20260506132900 0 207 4.0 4.0 0.00 0.00 0.00 -999.0
20260506132801 0 219 5.0 5.0 0.00 0.00 0.00 -999.0
20260506132601 0 214 6.0 6.0 0.00 0.00 0.00 -999.0
20260506132501 0 164 3.0 3.0 0.00 0.00 0.00 -999.0
20260506132400 0 208 5.0 5.0 0.00 0.00 0.00 -999.0
20260506132200 0 203 4.0 4.0 0.00 0.00 0.00 -999.0
20260506132001 0 211 4.0 4.0 0.00 0.00 0.00 -999.0
20260506131800 0 203 5.0 5.0 0.00 0.00 0.00 -999.0
20260506131601 0 191 3.0 3.0 0.00 0.00 0.00 -999.0
20260506131500 0 219 7.0 7.0 0.00 0.00 0.00 -999.0
20260506131401 0 247 3.0 3.0 0.00 0.00 0.00 -999.0
20260506131300 0 219 5.0 5.0 0.00 0.00 0.00 -999.0
20260506131201 0 217 7.0 7.0 0.00 0.00 0.00 -999.0
20260506131101 0 195 4.0 4.0 0.00 0.00 0.00 -999.0
20260506131001 0 227 4.0 4.0 0.00 0.00 0.00 -999.0
20260506130900 0 232 7.0 7.0 0.00 0.00 0.00 -999.0
20260506130800 0 194 7.0 7.0 0.00 0.00 0.00 -999.0
20260506130701 0 215 8.0 8.0 0.00 0.00 0.00 -999.0
20260506130600 0 162 6.0 6.0 0.00 0.00 0.00 -999.0
20260506130400 0 193 6.0 6.0 0.00 0.00 0.00 -999.0
20260506130200 0 192 3.0 3.0 0.00 0.00 0.00 -999.0
20260506130100 0 179 5.0 5.0 0.00 0.00 0.00 -999.0
20260506130001 0 214 0.0 0.0 0.00 0.00 0.00 -999.0
20260506125801 0 232 5.0 5.0 0.00 0.00 0.00 -999.0
20260506125700 0 234 5.0 5.0 0.00 0.00 0.00 -999.0
20260506125600 0 209 8.0 8.0 0.00 0.00 0.00 -999.0
20260506125500 0 203 5.0 5.0 0.00 0.00 0.00 -999.0
20260506125401 0 224 6.0 6.0 0.00 0.00 0.00 -999.0
20260506125301 0 214 9.0 9.0 0.00 0.00 0.00 -999.0
20260506125200 0 226 5.0 5.0 0.00 0.00 0.00 -999.0
20260506125101 0 193 2.0 2.0 0.00 0.00 0.00 -999.0
20260506125000 0 226 7.0 7.0 0.00 0.00 0.00 -999.0
20260506124901 0 176 2.0 2.0 0.00 0.00 0.00 -999.0
20260506124800 0 213 4.0 4.0 0.00 0.00 0.00 -999.0
20260506124701 0 212 4.0 4.0 0.00 0.00 0.00 -999.0
20260506124600 0 229 3.0 3.0 0.00 0.00 0.00 -999.0
20260506124501 0 224 3.0 3.0 0.00 0.00 0.00 -999.0
20260506124400 0 165 3.0 3.0 0.00 0.00 0.00 -999.0
20260506124301 0 218 7.0 7.0 0.00 0.00 0.00 -999.0
20260506124200 0 198 7.0 7.0 0.00 0.00 0.00 -999.0
20260506124100 0 214 5.0 5.0 0.00 0.00 0.00 -999.0
20260506124000 0 230 3.0 3.0 0.00 0.00 0.00 -999.0
20260506123900 0 162 3.0 3.0 0.00 0.00 0.00 -999.0
20260506123800 0 157 5.0 5.0 0.00 0.00 0.00 -999.0
20260506123700 0 229 6.0 6.0 0.00 0.00 0.00 -999.0
20260506123600 0 235 10.0 10.0 0.00 0.00 0.00 -999.0
20260506123500 0 220 10.0 10.0 0.00 0.00 0.00 -999.0
20260506123401 0 233 6.0 6.0 0.00 0.00 0.00 -999.0
20260506123300 0 185 4.0 4.0 0.00 0.00 0.00 -999.0
20260506123001 0 214 6.0 6.0 0.00 0.00 0.00 -999.0
20260506122901 0 202 2.0 2.0 0.00 0.00 0.00 -999.0
20260506122801 0 166 2.0 2.0 0.00 0.00 0.00 -999.0
20260506122600 0 220 6.0 6.0 0.00 0.00 0.00 -999.0
20260506122401 0 221 3.0 3.0 0.00 0.00 0.00 -999.0
20260506122301 0 206 2.0 2.0 0.00 0.00 0.00 -999.0
20260506122201 0 210 5.0 5.0 0.00 0.00 0.00 -999.0
20260506122100 0 210 5.0 5.0 0.00 0.00 0.00 -999.0
20260506122001 0 226 7.0 7.0 0.00 0.00 0.00 -999.0
20260506121802 0 221 2.0 2.0 0.00 0.00 0.00 -999.0
20260506121700 0 200 4.0 4.0 0.00 0.00 0.00 -999.0
20260506121601 0 217 2.0 2.0 0.00 0.00 0.00 -999.0
20260506121400 0 231 5.0 5.0 0.00 0.00 0.00 -999.0
20260506121300 0 194 2.0 2.0 0.00 0.00 0.00 -999.0
20260506121201 0 217 1.0 1.0 0.00 0.00 0.00 -999.0
20260506121100 0 214 3.0 3.0 0.00 0.00 0.00 -999.0
20260506121000 0 211 2.0 2.0 0.00 0.00 0.00 -999.0
20260506120901 0 183 5.0 5.0 0.00 0.00 0.00 -999.0
20260506120800 0 226 7.0 7.0 0.00 0.00 0.00 -999.0
20260506120701 0 141 4.0 4.0 0.00 0.00 0.00 -999.0
20260506120600 0 218 4.0 4.0 0.00 0.00 0.00 -999.0
20260506120502 0 194 3.0 3.0 0.00 0.00 0.00 -999.0
20260506120300 0 210 1.0 1.0 0.00 0.00 0.00 -999.0
20260506120200 0 229 4.0 4.0 0.00 0.00 0.00 -999.0
20260506120100 0 209 1.0 1.0 0.00 0.00 0.00 -999.0
20260506120001 0 204 6.0 6.0 0.00 0.00 0.00 -999.0
20260506115902 0 207 3.0 3.0 0.00 0.00 0.00 -999.0
20260506115800 0 198 2.0 2.0 0.00 0.00 0.00 -999.0
20260506115700 0 205 1.0 1.0 0.00 0.00 0.00 -999.0
20260506115600 0 196 4.0 4.0 0.00 0.00 0.00 -999.0
20260506115500 0 234 3.0 3.0 0.00 0.00 0.00 -999.0
20260506115400 0 234 5.0 5.0 0.00 0.00 0.00 -999.0
20260506115200 0 221 3.0 3.0 0.00 0.00 0.00 -999.0
20260506115101 0 204 5.0 5.0 0.00 0.00 0.00 -999.0
20260506115000 0 196 4.0 4.0 0.00 0.00 0.00 -999.0
20260506114900 0 212 3.0 3.0 0.00 0.00 0.00 -999.0
20260506114800 0 137 4.0 4.0 0.00 0.00 0.00 -999.0
20260506114700 0 197 6.0 6.0 0.00 0.00 0.00 -999.0
20260506114601 0 174 5.0 5.0 0.00 0.00 0.00 -999.0
20260506114500 0 243 2.0 2.0 0.00 0.00 0.00 -999.0
20260506114400 0 205 4.0 4.0 0.00 0.00 0.00 -999.0
20260506114300 0 210 4.0 4.0 0.00 0.00 0.00 -999.0
20260506114200 0 198 5.0 5.0 0.00 0.00 0.00 -999.0
20260506114101 0 189 5.0 5.0 0.00 0.00 0.00 -999.0
20260506114000 0 168 5.0 5.0 0.00 0.00 0.00 -999.0
20260506113900 0 191 1.0 1.0 0.00 0.00 0.00 -999.0
20260506113703 0 136 4.0 4.0 0.00 0.00 0.00 -999.0
20260506113402 0 188 2.0 2.0 0.00 0.00 0.00 -999.0
20260506113301 0 203 1.0 1.0 0.00 0.00 0.00 -999.0
20260506113200 0 224 5.0 5.0 0.00 0.00 0.00 -999.0
20260506113100 0 219 3.0 3.0 0.00 0.00 0.00 -999.0
20260506113000 0 179 2.0 2.0 0.00 0.00 0.00 -999.0
20260506112900 0 168 2.0 2.0 0.00 0.00 0.00 -999.0
20260506112800 0 211 5.0 5.0 0.00 0.00 0.00 -999.0
20260506112701 0 141 1.0 1.0 0.00 0.00 0.00 -999.0
20260506112600 0 195 1.0 1.0 0.00 0.00 0.00 -999.0
20260506112500 0 196 4.0 4.0 0.00 0.00 0.00 -999.0
20260506112400 0 190 4.0 4.0 0.00 0.00 0.00 -999.0
20260506112300 0 196 5.0 5.0 0.00 0.00 0.00 -999.0
20260506112201 0 182 7.0 7.0 0.00 0.00 0.00 -999.0
20260506112101 0 153 4.0 4.0 0.00 0.00 0.00 -999.0
20260506112001 0 181 6.0 6.0 0.00 0.00 0.00 -999.0
20260506111900 0 182 3.0 3.0 0.00 0.00 0.00 -999.0
20260506111801 0 159 3.0 3.0 0.00 0.00 0.00 -999.0
20260506111700 0 202 4.0 4.0 0.00 0.00 0.00 -999.0
20260506111501 0 203 6.0 6.0 0.00 0.00 0.00 -999.0
20260506111401 0 196 3.0 3.0 0.00 0.00 0.00 -999.0
20260506111300 0 160 8.0 8.0 0.00 0.00 0.00 -999.0
20260506110900 0 209 3.0 3.0 0.00 0.00 0.00 -999.0
20260506110800 0 167 4.0 4.0 0.00 0.00 0.00 -999.0
20260506110701 0 191 5.0 5.0 0.00 0.00 0.00 -999.0
20260506110600 0 176 3.0 3.0 0.00 0.00 0.00 -999.0
20260506110500 0 179 3.0 3.0 0.00 0.00 0.00 -999.0
20260506110300 0 193 3.0 3.0 0.00 0.00 0.00 -999.0
20260506110200 0 222 3.0 3.0 0.00 0.00 0.00 -999.0
20260506105900 0 160 2.0 2.0 0.00 0.00 0.00 -999.0
20260506105600 0 197 6.0 6.0 0.00 0.00 0.00 -999.0
20260506105500 0 199 4.0 4.0 0.00 0.00 0.00 -999.0
20260506105100 0 198 5.0 5.0 0.00 0.00 0.00 -999.0
20260506105000 0 201 2.0 2.0 0.00 0.00 0.00 -999.0
20260506104800 0 220 5.0 5.0 0.00 0.00 0.00 -999.0
20260506104700 0 212 2.0 2.0 0.00 0.00 0.00 -999.0
20260506104600 0 193 3.0 3.0 0.00 0.00 0.00 -999.0
20260506104500 0 164 5.0 5.0 0.00 0.00 0.00 -999.0
20260506104300 0 156 2.0 2.0 0.00 0.00 0.00 -999.0
20260506104200 0 193 5.0 5.0 0.00 0.00 0.00 -999.0
20260506104100 0 193 2.0 2.0 0.00 0.00 0.00 -999.0
20260506104001 0 192 4.0 4.0 0.00 0.00 0.00 -999.0
20260506103900 0 227 7.0 7.0 0.00 0.00 0.00 -999.0
20260506103800 0 157 2.0 2.0 0.00 0.00 0.00 -999.0
20260506103600 0 188 2.0 2.0 0.00 0.00 0.00 -999.0
20260506103501 0 178 6.0 6.0 0.00 0.00 0.00 -999.0
20260506103400 0 196 4.0 4.0 0.00 0.00 0.00 -999.0
20260506103300 0 199 5.0 5.0 0.00 0.00 0.00 -999.0
20260506103200 0 204 8.0 8.0 0.00 0.00 0.00 -999.0
20260506103100 0 195 3.0 3.0 0.00 0.00 0.00 -999.0
20260506103000 0 199 4.0 4.0 0.00 0.00 0.00 -999.0
20260506102901 0 169 6.0 6.0 0.00 0.00 0.00 -999.0
20260506102801 0 194 3.0 3.0 0.00 0.00 0.00 -999.0
20260506102700 0 198 4.0 4.0 0.00 0.00 0.00 -999.0
20260506102600 0 219 6.0 6.0 0.00 0.00 0.00 -999.0
20260506102500 0 217 7.0 7.0 0.00 0.00 0.00 -999.0
20260506102400 0 217 3.0 3.0 0.00 0.00 0.00 -999.0
20260506102301 0 202 4.0 4.0 0.00 0.00 0.00 -999.0
20260506102100 0 187 3.0 3.0 0.00 0.00 0.00 -999.0
20260506102000 0 185 2.0 2.0 0.00 0.00 0.00 -999.0
20260506101900 0 170 5.0 5.0 0.00 0.00 0.00 -999.0
20260506101800 0 186 9.0 9.0 0.00 0.00 0.00 -999.0
20260506101700 0 167 3.0 3.0 0.00 0.00 0.00 -999.0
20260506101500 0 202 7.0 7.0 0.00 0.00 0.00 -999.0
20260506101401 0 174 2.0 2.0 0.00 0.00 0.00 -999.0
20260506101300 0 189 6.0 6.0 0.00 0.00 0.00 -999.0
20260506101201 0 188 3.0 3.0 0.00 0.00 0.00 -999.0
20260506101000 0 207 5.0 5.0 0.00 0.00 0.00 -999.0
20260506100900 0 190 4.0 4.0 0.00 0.00 0.00 -999.0
20260506100801 0 197 3.0 3.0 0.00 0.00 0.00 -999.0
20260506100700 0 191 3.0 3.0 0.00 0.00 0.00 -999.0
20260506100600 0 164 3.0 3.0 0.00 0.00 0.00 -999.0
20260506100500 0 217 3.0 3.0 0.00 0.00 0.00 -999.0
20260506100400 0 185 6.0 6.0 0.00 0.00 0.00 -999.0
20260506100300 0 167 2.0 2.0 0.00 0.00 0.00 -999.0
20260506100200 0 188 5.0 5.0 0.00 0.00 0.00 -999.0
20260506100100 0 193 5.0 5.0 0.00 0.00 0.00 -999.0
20260506100001 0 212 1.0 1.0 0.00 0.00 0.00 -999.0
20260506095900 0 181 8.0 8.0 0.00 0.00 0.00 -999.0
20260506095800 0 200 3.0 3.0 0.00 0.00 0.00 -999.0
20260506095700 0 169 7.0 7.0 0.00 0.00 0.00 -999.0
20260506095601 0 200 6.0 6.0 0.00 0.00 0.00 -999.0
20260506095301 0 197 4.0 4.0 0.00 0.00 0.00 -999.0
20260506095200 0 195 5.0 5.0 0.00 0.00 0.00 -999.0
20260506095100 0 155 4.0 4.0 0.00 0.00 0.00 -999.0
20260506095001 0 184 3.0 3.0 0.00 0.00 0.00 -999.0
20260506094900 0 202 3.0 3.0 0.00 0.00 0.00 -999.0
20260506094800 0 190 2.0 2.0 0.00 0.00 0.00 -999.0
20260506094701 0 187 6.0 6.0 0.00 0.00 0.00 -999.0
20260506094601 0 169 3.0 3.0 0.00 0.00 0.00 -999.0
20260506094501 0 238 4.0 4.0 0.00 0.00 0.00 -999.0
20260506094201 0 203 3.0 3.0 0.00 0.00 0.00 -999.0
20260506094100 0 235 3.0 3.0 0.00 0.00 0.00 -999.0
20260506094000 0 226 5.0 5.0 0.00 0.00 0.00 -999.0
20260506093901 0 181 5.0 5.0 0.00 0.00 0.00 -999.0
20260506093801 0 211 5.0 5.0 0.00 0.00 0.00 -999.0
20260506093700 0 149 6.0 6.0 0.00 0.00 0.00 -999.0
20260506093600 0 155 5.0 5.0 0.00 0.00 0.00 -999.0
20260506093501 0 172 1.0 1.0 0.00 0.00 0.00 -999.0
20260506093100 0 207 4.0 4.0 0.00 0.00 0.00 -999.0
20260506093000 0 165 1.0 1.0 0.00 0.00 0.00 -999.0
20260506092901 0 193 4.0 4.0 0.00 0.00 0.00 -999.0
20260506092801 0 200 6.0 6.0 0.00 0.00 0.00 -999.0
20260506092700 0 191 4.0 4.0 0.00 0.00 0.00 -999.0
20260506092601 0 157 4.0 4.0 0.00 0.00 0.00 -999.0
20260506092500 0 191 2.0 2.0 0.00 0.00 0.00 -999.0
20260506092400 0 207 3.0 3.0 0.00 0.00 0.00 -999.0
20260506092301 0 181 2.0 2.0 0.00 0.00 0.00 -999.0
20260506092201 0 193 7.0 7.0 0.00 0.00 0.00 -999.0
20260506092000 0 192 4.0 4.0 0.00 0.00 0.00 -999.0
20260506091900 0 203 1.0 1.0 0.00 0.00 0.00 -999.0
20260506091801 0 230 3.0 3.0 0.00 0.00 0.00 -999.0
20260506091700 0 174 2.0 2.0 0.00 0.00 0.00 -999.0
20260506091600 0 151 3.0 3.0 0.00 0.00 0.00 -999.0
20260506091401 0 217 7.0 7.0 0.00 0.00 0.00 -999.0
20260506091302 0 192 3.0 3.0 0.00 0.00 0.00 -999.0
20260506091200 0 189 9.0 9.0 0.00 0.00 0.00 -999.0
20260506091101 0 204 6.0 6.0 0.00 0.00 0.00 -999.0
20260506091001 0 207 3.0 3.0 0.00 0.00 0.00 -999.0
20260506090900 0 199 2.0 2.0 0.00 0.00 0.00 -999.0
20260506090801 0 165 5.0 5.0 0.00 0.00 0.00 -999.0
20260506090701 0 210 2.0 2.0 0.00 0.00 0.00 -999.0
20260506090601 0 219 5.0 5.0 0.00 0.00 0.00 -999.0
20260506090500 0 169 7.0 7.0 0.00 0.00 0.00 -999.0
20260506090200 0 184 3.0 3.0 0.00 0.00 0.00 -999.0
20260506085901 0 174 7.0 7.0 0.00 0.00 0.00 -999.0
20260506085800 0 200 1.0 1.0 0.00 0.00 0.00 -999.0
20260506085702 0 174 5.0 5.0 0.00 0.00 0.00 -999.0
20260506085500 0 200 1.0 1.0 0.00 0.00 0.00 -999.0
20260506085401 0 167 3.0 3.0 0.00 0.00 0.00 -999.0
20260506085300 0 172 6.0 6.0 0.00 0.00 0.00 -999.0
20260506085001 0 207 2.0 2.0 0.00 0.00 0.00 -999.0
20260506084901 0 208 2.0 2.0 0.00 0.00 0.00 -999.0
20260506084801 0 192 2.0 2.0 0.00 0.00 0.00 -999.0
20260506084701 0 178 4.0 4.0 0.00 0.00 0.00 -999.0
20260506084600 0 175 3.0 3.0 0.00 0.00 0.00 -999.0
20260506084500 0 157 4.0 4.0 0.00 0.00 0.00 -999.0
20260506084401 0 177 6.0 6.0 0.00 0.00 0.00 -999.0
20260506084300 0 173 3.0 3.0 0.00 0.00 0.00 -999.0
20260506084200 0 155 1.0 1.0 0.00 0.00 0.00 -999.0
20260506084101 0 165 3.0 3.0 0.00 0.00 0.00 -999.0
20260506084001 0 182 2.0 2.0 0.00 0.00 0.00 -999.0
20260506083900 0 211 3.0 3.0 0.00 0.00 0.00 -999.0
20260506083800 0 243 4.0 4.0 0.00 0.00 0.00 -999.0
20260506083701 0 155 4.0 4.0 0.00 0.00 0.00 -999.0
20260506083600 0 212 4.0 4.0 0.00 0.00 0.00 -999.0
20260506083500 0 203 4.0 4.0 0.00 0.00 0.00 -999.0
20260506083400 0 204 3.0 3.0 0.00 0.00 0.00 -999.0
20260506083301 0 210 5.0 5.0 0.00 0.00 0.00 -999.0
20260506083201 0 167 2.0 2.0 0.00 0.00 0.00 -999.0
20260506083001 0 165 3.0 3.0 0.00 0.00 0.00 -999.0
20260506082901 0 139 2.0 2.0 0.00 0.00 0.00 -999.0
20260506082700 0 189 2.0 2.0 0.00 0.00 0.00 -999.0
20260506082500 0 179 2.0 2.0 0.00 0.00 0.00 -999.0
20260506082400 0 188 6.0 6.0 0.00 0.00 0.00 -999.0
20260506082200 0 198 6.0 6.0 0.00 0.00 0.00 -999.0
20260506082101 0 212 4.0 4.0 0.00 0.00 0.00 -999.0
20260506082000 0 208 1.0 1.0 0.00 0.00 0.00 -999.0
20260506081900 0 192 4.0 4.0 0.00 0.00 0.00 -999.0
20260506081701 0 173 2.0 2.0 0.00 0.00 0.00 -999.0
20260506081600 0 200 4.0 4.0 0.00 0.00 0.00 -999.0
20260506081500 0 172 5.0 5.0 0.00 0.00 0.00 -999.0
20260506081100 0 176 3.0 3.0 0.00 0.00 0.00 -999.0
20260506081000 0 178 5.0 5.0 0.00 0.00 0.00 -999.0
20260506080900 0 173 4.0 4.0 0.00 0.00 0.00 -999.0
20260506080800 0 213 4.0 4.0 0.00 0.00 0.00 -999.0
20260506080700 0 202 4.0 4.0 0.00 0.00 0.00 -999.0
20260506080600 0 162 3.0 3.0 0.00 0.00 0.00 -999.0
20260506080500 0 188 7.0 7.0 0.00 0.00 0.00 -999.0
20260506080400 0 173 5.0 5.0 0.00 0.00 0.00 -999.0
20260506073500 0 214 3.0 3.0 0.00 0.00 0.00 -999.0
20260506073400 0 145 4.0 4.0 0.00 0.00 0.00 -999.0
20260506073300 0 185 2.0 2.0 0.00 0.00 0.00 -999.0
20260506073200 0 203 2.0 2.0 0.00 0.00 0.00 -999.0
20260506073001 0 168 5.0 5.0 0.00 0.00 0.00 -999.0
20260506072700 0 158 4.0 4.0 0.00 0.00 0.00 -999.0
20260506072600 0 191 4.0 4.0 0.00 0.00 0.00 -999.0
20260506072500 0 203 3.0 3.0 0.00 0.00 0.00 -999.0
20260506072401 0 198 3.0 3.0 0.00 0.00 0.00 -999.0
20260506072300 0 232 2.0 2.0 0.00 0.00 0.00 -999.0
20260506072200 0 215 4.0 4.0 0.00 0.00 0.00 -999.0
20260506072100 0 224 6.0 6.0 0.00 0.00 0.00 -999.0
20260506072000 0 190 3.0 3.0 0.00 0.00 0.00 -999.0
20260506071900 0 202 4.0 4.0 0.00 0.00 0.00 -999.0
20260506071800 0 196 3.0 3.0 0.00 0.00 0.00 -999.0
20260506071601 0 206 2.0 2.0 0.00 0.00 0.00 -999.0
20260506071400 0 232 2.0 2.0 0.00 0.00 0.00 -999.0
20260506071301 0 153 3.0 3.0 0.00 0.00 0.00 -999.0
20260506071200 0 198 2.0 2.0 0.00 0.00 0.00 -999.0
20260506071100 0 198 4.0 4.0 0.00 0.00 0.00 -999.0
20260506070800 0 181 7.0 7.0 0.00 0.00 0.00 -999.0
20260506070700 0 193 4.0 4.0 0.00 0.00 0.00 -999.0
20260506070600 0 174 3.0 3.0 0.00 0.00 0.00 -999.0
20260506070500 0 214 2.0 2.0 0.00 0.00 0.00 -999.0
20260506070400 0 195 4.0 4.0 0.00 0.00 0.00 -999.0
20260506070300 0 149 5.0 5.0 0.00 0.00 0.00 -999.0
20260506062300 0 198 3.0 3.0 0.00 0.00 0.00 -999.0
20260506062201 0 211 4.0 4.0 0.00 0.00 0.00 -999.0
20260506062100 0 184 3.0 3.0 0.00 0.00 0.00 -999.0
20260506061800 0 196 2.0 2.0 0.00 0.00 0.00 -999.0
20260506061701 0 184 4.0 4.0 0.00 0.00 0.00 -999.0
20260506061601 0 210 1.0 1.0 0.00 0.00 0.00 -999.0
20260506061500 0 142 2.0 2.0 0.00 0.00 0.00 -999.0
20260506061400 0 177 6.0 6.0 0.00 0.00 0.00 -999.0
20260506061200 0 185 5.0 5.0 0.00 0.00 0.00 -999.0
20260506061101 0 198 2.0 2.0 0.00 0.00 0.00 -999.0
20260506061000 0 175 4.0 4.0 0.00 0.00 0.00 -999.0
20260506060801 0 162 5.0 5.0 0.00 0.00 0.00 -999.0
20260506060600 0 191 4.0 4.0 0.00 0.00 0.00 -999.0
20260506060501 0 168 4.0 4.0 0.00 0.00 0.00 -999.0
20260506060301 0 217 3.0 3.0 0.00 0.00 0.00 -999.0
20260506051300 0 158 3.0 3.0 0.00 0.00 0.00 -999.0
20260506051201 0 222 5.0 5.0 0.00 0.00 0.00 -999.0
20260506051000 0 189 1.0 1.0 0.00 0.00 0.00 -999.0
20260506050900 0 193 3.0 3.0 0.00 0.00 0.00 -999.0
20260506050801 0 195 4.0 4.0 0.00 0.00 0.00 -999.0
20260506050700 0 188 3.0 3.0 0.00 0.00 0.00 -999.0
20260506050501 0 200 2.0 2.0 0.00 0.00 0.00 -999.0
20260506050400 0 217 2.0 2.0 0.00 0.00 0.00 -999.0
20260506050201 0 185 1.0 1.0 0.00 0.00 0.00 -999.0
20260506045101 0 213 1.0 1.0 0.00 0.00 0.00 -999.0
20260506045001 0 200 4.0 4.0 0.00 0.00 0.00 -999.0
20260506044901 0 162 1.0 1.0 0.00 0.00 0.00 -999.0
20260506044700 0 159 3.0 3.0 0.00 0.00 0.00 -999.0
20260506044601 0 205 2.0 2.0 0.00 0.00 0.00 -999.0
20260506044501 0 199 1.0 1.0 0.00 0.00 0.00 -999.0
20260506044400 0 215 1.0 1.0 0.00 0.00 0.00 -999.0
20260506044000 0 162 5.0 5.0 0.00 0.00 0.00 -999.0
20260506043900 0 202 2.0 2.0 0.00 0.00 0.00 -999.0
20260506043801 0 157 2.0 2.0 0.00 0.00 0.00 -999.0
20260506043701 0 185 3.0 3.0 0.00 0.00 0.00 -999.0
20260506043601 0 162 3.0 3.0 0.00 0.00 0.00 -999.0
20260506043501 0 174 3.0 3.0 0.00 0.00 0.00 -999.0
20260506043401 0 148 3.0 3.0 0.00 0.00 0.00 -999.0
20260506043201 0 188 2.0 2.0 0.00 0.00 0.00 -999.0
20260506043100 0 167 2.0 2.0 0.00 0.00 0.00 -999.0
20260506043001 0 195 4.0 4.0 0.00 0.00 0.00 -999.0
20260506042900 0 182 2.0 2.0 0.00 0.00 0.00 -999.0
20260506042801 0 217 2.0 2.0 0.00 0.00 0.00 -999.0
20260506042600 0 205 2.0 2.0 0.00 0.00 0.00 -999.0
20260506042401 0 202 2.0 2.0 0.00 0.00 0.00 -999.0
20260506042201 0 210 3.0 3.0 0.00 0.00 0.00 -999.0
20260506042100 0 181 2.0 2.0 0.00 0.00 0.00 -999.0
20260506042000 0 188 4.0 4.0 0.00 0.00 0.00 -999.0
20260506041900 0 169 3.0 3.0 0.00 0.00 0.00 -999.0
20260506041801 0 179 2.0 2.0 0.00 0.00 0.00 -999.0
20260506041701 0 162 3.0 3.0 0.00 0.00 0.00 -999.0
20260506041601 0 203 2.0 2.0 0.00 0.00 0.00 -999.0
20260506041501 0 196 1.0 1.0 0.00 0.00 0.00 -999.0
20260506041401 0 195 3.0 3.0 0.00 0.00 0.00 -999.0
20260506041301 0 189 1.0 1.0 0.00 0.00 0.00 -999.0
20260506041200 0 176 2.0 2.0 0.00 0.00 0.00 -999.0
20260506041100 0 181 2.0 2.0 0.00 0.00 0.00 -999.0
20260506041001 0 156 2.0 2.0 0.00 0.00 0.00 -999.0
20260506040901 0 162 2.0 2.0 0.00 0.00 0.00 -999.0
20260506040800 0 164 4.0 4.0 0.00 0.00 0.00 -999.0
20260506040701 0 148 4.0 4.0 0.00 0.00 0.00 -999.0
20260506040601 0 165 2.0 2.0 0.00 0.00 0.00 -999.0
20260506040500 0 145 3.0 3.0 0.00 0.00 0.00 -999.0
20260506040401 0 167 3.0 3.0 0.00 0.00 0.00 -999.0
20260506040300 0 160 2.0 2.0 0.00 0.00 0.00 -999.0
20260506040201 0 158 2.0 2.0 0.00 0.00 0.00 -999.0
20260506040100 0 170 3.0 3.0 0.00 0.00 0.00 -999.0
20260506040000 0 150 1.0 1.0 0.00 0.00 0.00 -999.0
20260506035901 0 159 1.0 1.0 0.00 0.00 0.00 -999.0
20260506035701 0 165 2.0 2.0 0.00 0.00 0.00 -999.0
20260506035500 0 165 1.0 1.0 0.00 0.00 0.00 -999.0
20260506035301 0 196 3.0 3.0 0.00 0.00 0.00 -999.0
20260506035101 0 167 3.0 3.0 0.00 0.00 0.00 -999.0
20260506035001 0 162 3.0 3.0 0.00 0.00 0.00 -999.0
20260506034901 0 163 1.0 1.0 0.00 0.00 0.00 -999.0
20260506034701 0 155 2.0 2.0 0.00 0.00 0.00 -999.0
20260506034600 0 152 2.0 2.0 0.00 0.00 0.00 -999.0
20260506034500 0 171 2.0 2.0 0.00 0.00 0.00 -999.0
20260506034400 0 160 3.0 3.0 0.00 0.00 0.00 -999.0
20260506034300 0 163 1.0 1.0 0.00 0.00 0.00 -999.0
20260506034101 0 157 3.0 3.0 0.00 0.00 0.00 -999.0
20260506034001 0 155 2.0 2.0 0.00 0.00 0.00 -999.0
20260506033901 0 160 3.0 3.0 0.00 0.00 0.00 -999.0
20260506033801 0 169 2.0 2.0 0.00 0.00 0.00 -999.0
20260506033701 0 156 2.0 2.0 0.00 0.00 0.00 -999.0
20260506033200 0 159 2.0 2.0 0.00 0.00 0.00 -999.0
20260506033100 0 158 3.0 3.0 0.00 0.00 0.00 -999.0
20260506033001 0 153 2.0 2.0 0.00 0.00 0.00 -999.0
20260506032900 0 172 2.0 2.0 0.00 0.00 0.00 -999.0
20260506032801 0 167 3.0 3.0 0.00 0.00 0.00 -999.0
20260506032701 0 162 2.0 2.0 0.00 0.00 0.00 -999.0
20260506032601 0 155 1.0 1.0 0.00 0.00 0.00 -999.0
20260506032500 0 169 2.0 2.0 0.00 0.00 0.00 -999.0
20260506032300 0 157 2.0 2.0 0.00 0.00 0.00 -999.0
20260506032201 0 158 2.0 2.0 0.00 0.00 0.00 -999.0
20260506032000 0 164 1.0 1.0 0.00 0.00 0.00 -999.0
20260506031901 0 162 2.0 2.0 0.00 0.00 0.00 -999.0
20260506031801 0 160 1.0 1.0 0.00 0.00 0.00 -999.0
20260506031700 0 165 1.0 1.0 0.00 0.00 0.00 -999.0
20260506031601 0 165 0.0 0.0 0.00 0.00 0.00 -999.0
20260506031500 0 163 1.0 1.0 0.00 0.00 0.00 -999.0
20260506031200 0 157 0.0 0.0 0.00 0.00 0.00 -999.0
20260506031000 0 162 0.0 0.0 0.00 0.00 0.00 -999.0
20260506030900 0 162 0.0 0.0 0.00 0.00 0.00 -999.0
20260506030801 0 190 1.0 1.0 0.00 0.00 0.00 -999.0
20260506030601 0 162 1.0 1.0 0.00 0.00 0.00 -999.0
20260506030501 0 172 2.0 2.0 0.00 0.00 0.00 -999.0
20260506030400 0 163 2.0 2.0 0.00 0.00 0.00 -999.0
20260506030300 0 163 2.0 2.0 0.00 0.00 0.00 -999.0
20260506030201 0 158 2.0 2.0 0.00 0.00 0.00 -999.0
20260506030001 0 166 2.0 2.0 0.00 0.00 0.00 -999.0
20260506025900 0 163 2.0 2.0 0.00 0.00 0.00 -999.0
20260506025700 0 148 2.0 2.0 0.00 0.00 0.00 -999.0
20260506025601 0 154 1.0 1.0 0.00 0.00 0.00 -999.0
20260506025501 0 149 3.0 3.0 0.00 0.00 0.00 -999.0
20260506025301 0 170 2.0 2.0 0.00 0.00 0.00 -999.0
20260506025200 0 166 1.0 1.0 0.00 0.00 0.00 -999.0
20260506025101 0 155 1.0 1.0 0.00 0.00 0.00 -999.0
20260506025001 0 160 2.0 2.0 0.00 0.00 0.00 -999.0
20260506024901 0 170 1.0 1.0 0.00 0.00 0.00 -999.0
20260506024801 0 160 2.0 2.0 0.00 0.00 0.00 -999.0
20260506024600 0 167 2.0 2.0 0.00 0.00 0.00 -999.0
20260506024500 0 172 1.0 1.0 0.00 0.00 0.00 -999.0
20260506024401 0 140 1.0 1.0 0.00 0.00 0.00 -999.0
20260506024001 0 164 1.0 1.0 0.00 0.00 0.00 -999.0
20260506023901 0 172 1.0 1.0 0.00 0.00 0.00 -999.0
20260506023800 0 159 1.0 1.0 0.00 0.00 0.00 -999.0
20260506023700 0 163 1.0 1.0 0.00 0.00 0.00 -999.0
20260506023600 0 181 2.0 2.0 0.00 0.00 0.00 -999.0
20260506023501 0 163 1.0 1.0 0.00 0.00 0.00 -999.0
20260506023401 0 152 3.0 3.0 0.00 0.00 0.00 -999.0
20260506023300 0 165 3.0 3.0 0.00 0.00 0.00 -999.0
20260506023201 0 155 1.0 1.0 0.00 0.00 0.00 -999.0
20260506023100 0 150 2.0 2.0 0.00 0.00 0.00 -999.0
20260506023001 0 165 2.0 2.0 0.00 0.00 0.00 -999.0
20260506022900 0 160 3.0 3.0 0.00 0.00 0.00 -999.0
20260506022701 0 155 2.0 2.0 0.00 0.00 0.00 -999.0
20260506022600 0 156 2.0 2.0 0.00 0.00 0.00 -999.0
20260506022500 0 164 2.0 2.0 0.00 0.00 0.00 -999.0
20260506022400 0 150 2.0 2.0 0.00 0.00 0.00 -999.0
20260506022301 0 162 1.0 1.0 0.00 0.00 0.00 -999.0
20260506022201 0 162 2.0 2.0 0.00 0.00 0.00 -999.0
20260506022001 0 162 1.0 1.0 0.00 0.00 0.00 -999.0
20260506021700 0 191 1.0 1.0 0.00 0.00 0.00 -999.0
20260506021600 0 160 2.0 2.0 0.00 0.00 0.00 -999.0
20260506021501 0 192 0.0 0.0 0.00 0.00 0.00 -999.0
20260506021401 0 191 1.0 1.0 0.00 0.00 0.00 -999.0
20260506021301 0 196 1.0 1.0 0.00 0.00 0.00 -999.0
20260506021201 0 189 1.0 1.0 0.00 0.00 0.00 -999.0
20260506021100 0 191 0.0 0.0 0.00 0.00 0.00 -999.0
20260506021001 0 205 0.0 0.0 0.00 0.00 0.00 -999.0
20260506020900 0 205 1.0 1.0 0.00 0.00 0.00 -999.0
20260506020801 0 213 1.0 1.0 0.00 0.00 0.00 -999.0
20260506020701 0 221 1.0 1.0 0.00 0.00 0.00 -999.0
20260506020601 0 207 2.0 2.0 0.00 0.00 0.00 -999.0
20260506020501 0 138 1.0 1.0 0.00 0.00 0.00 -999.0
20260506020401 0 179 2.0 2.0 0.00 0.00 0.00 -999.0
20260506020300 0 204 1.0 1.0 0.00 0.00 0.00 -999.0
20260506020200 0 168 1.0 1.0 0.00 0.00 0.00 -999.0
20260506020001 0 188 1.0 1.0 0.00 0.00 0.00 -999.0
20260506015901 0 176 3.0 3.0 0.00 0.00 0.00 -999.0
20260506015801 0 164 2.0 2.0 0.00 0.00 0.00 -999.0
20260506015701 0 169 3.0 3.0 0.00 0.00 0.00 -999.0
20260506015601 0 200 0.0 0.0 0.00 0.00 0.00 -999.0
20260506015401 0 153 3.0 3.0 0.00 0.00 0.00 -999.0
20260506015200 0 150 2.0 2.0 0.00 0.00 0.00 -999.0
20260506015100 0 163 2.0 2.0 0.00 0.00 0.00 -999.0
20260506015000 0 165 2.0 2.0 0.00 0.00 0.00 -999.0
20260506014800 0 148 3.0 3.0 0.00 0.00 0.00 -999.0
20260506014701 0 192 1.0 1.0 0.00 0.00 0.00 -999.0
20260506014501 0 164 1.0 1.0 0.00 0.00 0.00 -999.0
20260506014301 0 181 1.0 1.0 0.00 0.00 0.00 -999.0
20260506014200 0 157 3.0 3.0 0.00 0.00 0.00 -999.0
20260506014100 0 169 1.0 1.0 0.00 0.00 0.00 -999.0
20260506014001 0 168 1.0 1.0 0.00 0.00 0.00 -999.0
20260506013900 0 195 2.0 2.0 0.00 0.00 0.00 -999.0
20260506013600 0 155 2.0 2.0 0.00 0.00 0.00 -999.0
20260506013500 0 200 2.0 2.0 0.00 0.00 0.00 -999.0
20260506013400 0 204 2.0 2.0 0.00 0.00 0.00 -999.0
20260506013300 0 159 2.0 2.0 0.00 0.00 0.00 -999.0
20260506013200 0 163 3.0 3.0 0.00 0.00 0.00 -999.0
20260506013100 0 181 2.0 2.0 0.00 0.00 0.00 -999.0
20260506013001 0 152 4.0 4.0 0.00 0.00 0.00 -999.0
20260506012901 0 188 1.0 1.0 0.00 0.00 0.00 -999.0
20260506012800 0 167 4.0 4.0 0.00 0.00 0.00 -999.0
20260506012700 0 160 4.0 4.0 0.00 0.00 0.00 -999.0
20260506012600 0 187 3.0 3.0 0.00 0.00 0.00 -999.0
20260506012500 0 169 1.0 1.0 0.00 0.00 0.00 -999.0
20260506012400 0 192 2.0 2.0 0.00 0.00 0.00 -999.0
20260506012300 0 143 1.0 1.0 0.00 0.00 0.00 -999.0
20260506012201 0 191 0.0 0.0 0.00 0.00 0.00 -999.0
20260506012101 0 184 1.0 1.0 0.00 0.00 0.00 -999.0
20260506012001 0 202 2.0 2.0 0.00 0.00 0.00 -999.0
20260506011901 0 206 1.0 1.0 0.00 0.00 0.00 -999.0
20260506011800 0 217 3.0 3.0 0.00 0.00 0.00 -999.0
20260506011700 0 219 3.0 3.0 0.00 0.00 0.00 -999.0
20260506011601 0 167 0.0 0.0 0.00 0.00 0.00 -999.0
20260506011400 0 236 1.0 1.0 0.00 0.00 0.00 -999.0
20260506011301 0 198 0.0 0.0 0.00 0.00 0.00 -999.0
20260506011200 0 204 2.0 2.0 0.00 0.00 0.00 -999.0
20260506011000 0 210 1.0 1.0 0.00 0.00 0.00 -999.0
20260506010501 0 155 4.0 4.0 0.00 0.00 0.00 -999.0
20260506010400 0 152 6.0 6.0 0.00 0.00 0.00 -999.0
20260506010301 0 174 3.0 3.0 0.00 0.00 0.00 -999.0
20260506010200 0 160 4.0 4.0 0.00 0.00 0.00 -999.0
20260506005901 0 151 3.0 3.0 0.00 0.00 0.00 -999.0
20260506005801 0 141 7.0 7.0 0.00 0.00 0.00 -999.0
20260506005601 0 143 5.0 5.0 0.00 0.00 0.00 -999.0
20260506005501 0 151 7.0 7.0 0.00 0.00 0.00 -999.0
20260506005401 0 164 8.0 8.0 0.00 0.00 0.00 -999.0
20260506005300 0 150 4.0 4.0 0.00 0.00 0.00 -999.0
20260506005201 0 200 3.0 3.0 0.00 0.00 0.00 -999.0
20260506005101 0 193 9.0 9.0 0.00 0.00 0.00 -999.0
20260506005000 0 172 9.0 9.0 0.00 0.00 0.00 -999.0
20260506004900 0 153 9.0 9.0 0.00 0.00 0.00 -999.0
20260506004801 0 202 3.0 3.0 0.00 0.00 0.00 -999.0
20260506004701 0 153 6.0 6.0 0.00 0.00 0.00 -999.0
20260506004600 0 131 5.0 5.0 0.00 0.00 0.00 -999.0
20260506004500 0 161 9.0 9.0 0.00 0.00 0.00 -999.0
20260506004400 0 203 2.0 2.0 0.00 0.00 0.00 -999.0
20260506004201 0 193 1.0 1.0 0.00 0.00 0.00 -999.0
20260506004100 0 140 4.0 4.0 0.00 0.00 0.00 -999.0
20260506003900 0 147 6.0 6.0 0.00 0.00 0.00 -999.0
20260506003801 0 160 5.0 5.0 0.00 0.00 0.00 -999.0
20260506003700 0 164 2.0 2.0 0.00 0.00 0.00 -999.0
20260506003600 0 141 5.0 5.0 0.00 0.00 0.00 -999.0
20260506003500 0 165 4.0 4.0 0.00 0.00 0.00 -999.0
20260506003300 0 170 7.0 7.0 0.00 0.00 0.00 -999.0
20260506003200 0 168 8.0 8.0 0.00 0.00 0.00 -999.0
20260506003101 0 156 7.0 7.0 0.00 0.00 0.00 -999.0
20260506003001 0 155 10.0 10.0 0.00 0.00 0.00 -999.0
20260506002901 0 142 8.0 8.0 0.00 0.00 0.00 -999.0
20260506002800 0 162 5.0 5.0 0.00 0.00 0.00 -999.0
20260506002701 0 157 8.0 8.0 0.00 0.00 0.00 -999.0
20260506002600 0 170 7.0 7.0 0.00 0.00 0.00 -999.0
20260506002501 0 162 6.0 6.0 0.00 0.00 0.00 -999.0
20260506002400 0 165 5.0 5.0 0.00 0.00 0.00 -999.0
20260506002101 0 142 5.0 5.0 0.00 0.00 0.00 -999.0
20260506001800 0 155 8.0 8.0 0.00 0.00 0.00 -999.0
20260506001701 0 153 8.0 8.0 0.00 0.00 0.00 -999.0
20260506001601 0 132 7.0 7.0 0.00 0.00 0.00 -999.0
20260506001500 0 183 5.0 5.0 0.00 0.00 0.00 -999.0
20260506001401 0 125 4.0 4.0 0.00 0.00 0.00 -999.0
20260506001300 0 153 6.0 6.0 0.00 0.00 0.00 -999.0
20260506001200 0 155 9.0 9.0 0.00 0.00 0.00 -999.0
20260506001100 0 155 8.0 8.0 0.00 0.00 0.00 -999.0
20260506001001 0 144 11.0 11.0 0.00 0.00 0.00 -999.0
20260506000900 0 138 12.0 12.0 0.00 0.00 0.00 -999.0
20260506000800 0 148 9.0 9.0 0.00 0.00 0.00 -999.0
20260506000701 0 151 9.0 9.0 0.00 0.00 0.00 -999.0
20260506000601 0 153 11.0 11.0 0.00 0.00 0.00 -999.0
20260506000401 0 152 11.0 11.0 0.00 0.00 0.00 -999.0
20260506000302 0 131 9.0 9.0 0.00 0.00 0.00 -999.0
20260506000200 0 141 11.0 11.0 0.00 0.00 0.00 -999.0
20260506000100 0 146 10.0 10.0 0.00 0.00 0.00 -999.0
20260506000001 0 159 11.0 11.0 0.00 0.00 0.00 -999.0
20260505235901 0 136 12.0 12.0 0.00 0.00 0.00 -999.0
20260505235700 0 150 9.0 9.0 0.00 0.00 0.00 -999.0
20260505235600 0 165 7.0 7.0 0.00 0.00 0.00 -999.0
20260505235400 0 137 10.0 10.0 0.00 0.00 0.00 -999.0
20260505235300 0 147 8.0 8.0 0.00 0.00 0.00 -999.0
20260505235200 0 145 8.0 8.0 0.00 0.00 0.00 -999.0
20260505235000 0 146 13.0 13.0 0.00 0.00 0.00 -999.0
20260505234900 0 150 8.0 8.0 0.00 0.00 0.00 -999.0
20260505234800 0 154 12.0 12.0 0.00 0.00 0.00 -999.0
20260505234601 0 139 10.0 10.0 0.00 0.00 0.00 -999.0
20260505234500 0 152 8.0 8.0 0.00 0.00 0.00 -999.0
20260505234400 0 158 10.0 10.0 0.00 0.00 0.00 -999.0
20260505234300 0 133 11.0 11.0 0.00 0.00 0.00 -999.0
20260505234200 0 118 9.0 9.0 0.00 0.00 0.00 -999.0
20260505233900 0 138 11.0 11.0 0.00 0.00 0.00 -999.0
20260505233800 0 121 12.0 12.0 0.00 0.00 0.00 -999.0
20260505233700 0 139 14.0 14.0 0.00 0.00 0.00 -999.0
20260505233600 0 143 10.0 10.0 0.00 0.00 0.00 -999.0
20260505233501 0 145 12.0 12.0 0.00 0.00 0.00 -999.0
20260505233401 0 134 12.0 12.0 0.00 0.00 0.00 -999.0
20260505233300 0 134 11.0 11.0 0.00 0.00 0.00 -999.0
20260505233200 0 131 10.0 10.0 0.00 0.00 0.00 -999.0
20260505232900 0 141 11.0 11.0 0.00 0.00 0.00 -999.0
20260505232801 0 113 11.0 11.0 0.00 0.00 0.00 -999.0
20260505232700 0 160 9.0 9.0 0.00 0.00 0.00 -999.0
20260505232500 0 118 10.0 10.0 0.00 0.00 0.00 -999.0
20260505232400 0 140 10.0 10.0 0.00 0.00 0.00 -999.0
20260505232100 0 145 9.0 9.0 0.00 0.00 0.00 -999.0
20260505232000 0 130 12.0 12.0 0.00 0.00 0.00 -999.0
20260505231800 0 134 9.0 9.0 0.00 0.00 0.00 -999.0
20260505231700 0 131 12.0 12.0 0.00 0.00 0.00 -999.0
20260505231600 0 152 10.0 10.0 0.00 0.00 0.00 -999.0
20260505231500 0 131 11.0 11.0 0.00 0.00 0.00 -999.0
20260505231401 0 132 11.0 11.0 0.00 0.00 0.00 -999.0
20260505231300 0 141 11.0 11.0 0.00 0.00 0.00 -999.0
20260505231200 0 149 13.0 13.0 0.00 0.00 0.00 -999.0
20260505231100 0 141 14.0 14.0 0.00 0.00 0.00 -999.0
20260505231001 0 144 11.0 11.0 0.00 0.00 0.00 -999.0
20260505230901 0 150 13.0 13.0 0.00 0.00 0.00 -999.0
20260505230800 0 123 11.0 11.0 0.00 0.00 0.00 -999.0
20260505230700 0 137 13.0 13.0 0.00 0.00 0.00 -999.0
20260505230500 0 154 14.0 14.0 0.00 0.00 0.00 -999.0
20260505230400 0 137 14.0 14.0 0.00 0.00 0.00 -999.0
20260505230301 0 138 11.0 11.0 0.00 0.00 0.00 -999.0
20260505230200 0 144 10.0 10.0 0.00 0.00 0.00 -999.0
20260505230100 0 117 12.0 12.0 0.00 0.00 0.00 -999.0
20260505230001 0 133 17.0 17.0 0.00 0.00 0.00 -999.0
20260505225900 0 140 13.0 13.0 0.00 0.00 0.00 -999.0
20260505225801 0 138 13.0 13.0 0.00 0.00 0.00 -999.0
20260505225600 0 137 11.0 11.0 0.00 0.00 0.00 -999.0
20260505225500 0 118 12.0 12.0 0.00 0.00 0.00 -999.0
20260505225401 0 137 8.0 8.0 0.00 0.00 0.00 -999.0
20260505225300 0 141 11.0 11.0 0.00 0.00 0.00 -999.0
20260505225200 0 116 14.0 14.0 0.00 0.00 0.00 -999.0
20260505225100 0 129 8.0 8.0 0.00 0.00 0.00 -999.0
20260505225001 0 130 12.0 12.0 0.00 0.00 0.00 -999.0
20260505224901 0 145 13.0 13.0 0.00 0.00 0.00 -999.0
20260505224700 0 124 14.0 14.0 0.00 0.00 0.00 -999.0
20260505224600 0 120 13.0 13.0 0.00 0.00 0.00 -999.0
20260505224500 0 135 10.0 10.0 0.00 0.00 0.00 -999.0
20260505224401 0 127 16.0 16.0 0.00 0.00 0.00 -999.0
20260505224201 0 144 13.0 13.0 0.00 0.00 0.00 -999.0
20260505224100 0 142 13.0 13.0 0.00 0.00 0.00 -999.0
20260505223900 0 134 14.0 14.0 0.00 0.00 0.00 -999.0
20260505223800 0 169 14.0 14.0 0.00 0.00 0.00 -999.0
20260505223700 0 124 15.0 15.0 0.00 0.00 0.00 -999.0
20260505223600 0 130 14.0 14.0 0.00 0.00 0.00 -999.0
20260505223500 0 138 12.0 12.0 0.00 0.00 0.00 -999.0
20260505223400 0 169 10.0 10.0 0.00 0.00 0.00 -999.0
20260505223301 0 136 13.0 13.0 0.00 0.00 0.00 -999.0
20260505223200 0 145 13.0 13.0 0.00 0.00 0.00 -999.0
20260505223000 0 138 13.0 13.0 0.00 0.00 0.00 -999.0
20260505222801 0 147 12.0 12.0 0.00 0.00 0.00 -999.0
20260505222703 0 127 15.0 15.0 0.00 0.00 0.00 -999.0
20260505222601 0 123 13.0 13.0 0.00 0.00 0.00 -999.0
20260505222501 0 132 14.0 14.0 0.00 0.00 0.00 -999.0
20260505222401 0 141 13.0 13.0 0.00 0.00 0.00 -999.0
20260505222301 0 150 11.0 11.0 0.00 0.00 0.00 -999.0
20260505222100 0 146 15.0 15.0 0.00 0.00 0.00 -999.0
20260505222000 0 141 15.0 15.0 0.00 0.00 0.00 -999.0
20260505221901 0 118 11.0 11.0 0.00 0.00 0.00 -999.0
20260505221700 0 129 15.0 15.0 0.00 0.00 0.00 -999.0
20260505221600 0 122 16.0 16.0 0.00 0.00 0.00 -999.0
20260505221500 0 136 11.0 11.0 0.00 0.00 0.00 -999.0
20260505221401 0 125 15.0 15.0 0.00 0.00 0.00 -999.0
20260505221300 0 145 10.0 10.0 0.00 0.00 0.00 -999.0
20260505221101 0 155 11.0 11.0 0.00 0.00 0.00 -999.0
20260505221001 0 138 16.0 16.0 0.00 0.00 0.00 -999.0
20260505220900 0 141 14.0 14.0 0.00 0.00 0.00 -999.0
20260505220600 0 144 14.0 14.0 0.00 0.00 0.00 -999.0
20260505220500 0 142 14.0 14.0 0.00 0.00 0.00 -999.0
20260505220400 0 129 14.0 14.0 0.00 0.00 0.00 -999.0
20260505220300 0 152 13.0 13.0 0.00 0.00 0.00 -999.0
20260505220200 0 129 12.0 12.0 0.00 0.00 0.00 -999.0
20260505220100 0 144 14.0 14.0 0.00 0.00 0.00 -999.0
20260505220000 0 146 10.0 10.0 0.00 0.00 0.00 -999.0
20260505215700 0 113 15.0 15.0 0.00 0.00 0.00 -999.0
20260505215600 0 154 14.0 14.0 0.00 0.00 0.00 -999.0
20260505215501 0 141 16.0 16.0 0.00 0.00 0.00 -999.0
20260505215400 0 143 12.0 12.0 0.00 0.00 0.00 -999.0
20260505215301 0 158 16.0 16.0 0.00 0.00 0.00 -999.0
20260505215100 0 134 14.0 14.0 0.00 0.00 0.00 -999.0
20260505215001 0 154 10.0 10.0 0.00 0.00 0.00 -999.0
20260505214900 0 146 17.0 17.0 0.00 0.00 0.00 -999.0
20260505214800 0 139 15.0 15.0 0.00 0.00 0.00 -999.0
20260505214701 0 163 14.0 14.0 0.00 0.00 0.00 -999.0
20260505214601 0 146 13.0 13.0 0.00 0.00 0.00 -999.0
20260505214501 0 127 14.0 14.0 0.00 0.00 0.00 -999.0
20260505214400 0 139 17.0 17.0 0.00 0.00 0.00 -999.0
20260505214301 0 139 13.0 13.0 0.00 0.00 0.00 -999.0
20260505214200 0 119 18.0 18.0 0.00 0.00 0.00 -999.0
20260505214100 0 136 16.0 16.0 0.00 0.00 0.00 -999.0
20260505214000 0 145 16.0 16.0 0.00 0.00 0.00 -999.0
20260505213901 0 135 10.0 10.0 0.00 0.00 0.00 -999.0
20260505213800 0 138 13.0 13.0 0.00 0.00 0.00 -999.0
20260505213700 0 146 16.0 16.0 0.00 0.00 0.00 -999.0
20260505213600 0 136 16.0 16.0 0.00 0.00 0.00 -999.0
20260505213500 0 144 13.0 13.0 0.00 0.00 0.00 -999.0
20260505213300 0 122 14.0 14.0 0.00 0.00 0.00 -999.0
20260505213200 0 141 16.0 16.0 0.00 0.00 0.00 -999.0
20260505213100 0 153 12.0 12.0 0.00 0.00 0.00 -999.0
20260505213000 0 162 13.0 13.0 0.00 0.00 0.00 -999.0
20260505212901 0 124 14.0 14.0 0.00 0.00 0.00 -999.0
20260505212800 0 145 13.0 13.0 0.00 0.00 0.00 -999.0
20260505212700 0 101 13.0 13.0 0.00 0.00 0.00 -999.0
20260505212600 0 142 15.0 15.0 0.00 0.00 0.00 -999.0
20260505212401 0 142 15.0 15.0 0.00 0.00 0.00 -999.0
20260505212200 0 121 15.0 15.0 0.00 0.00 0.00 -999.0
20260505212100 0 119 15.0 15.0 0.00 0.00 0.00 -999.0
20260505211900 0 148 13.0 13.0 0.00 0.00 0.00 -999.0
20260505211800 0 132 14.0 14.0 0.00 0.00 0.00 -999.0
20260505211700 0 148 11.0 11.0 0.00 0.00 0.00 -999.0
20260505211600 0 123 14.0 14.0 0.00 0.00 0.00 -999.0